Regional Weather Roundup
Issued by NWS Grand Forks, ND

Home | Current Version | Previous Version | Graphics & Text | Print | Product List | Glossary On
Versions: 1 2 3 4 5 6 7 8 9 10 11 12 13 14 15 16 17 18 19 20 21 22 23 24 25 26 27 28 29 30 31 32 33 34 35 36 37 38 39 40 41 42 43 44 45 46 47 48 49 50
000
ASUS43 KFGF 220110
RWRFGF
PRAIRIE TO PINES  WEATHER ROUNDUP
NATIONAL WEATHER SERVICE EASTERN NORTH DAKOTA/GRAND FORKS ND
700 PM CST TUE FEB 21 2017

 **SATELLITE DATA USED TO AUGMENT SKY COVER AT AUTOMATED STATIONS**
 *****  WEATHER ACROSS EASTERN NORTH DAKOTA  *****

CITY           SKY/WX    TMP DP  RH WIND       PRES   REMARKS
GRAND FORKS    FOG       34  30  85 NW6       29.69R VSB 1/4
GRAND FRKS AFB FOG       32  32 100 CALM      29.69S VSB 1/2
DEVILS LAKE    CLOUDY    35  32  88 CALM      29.67R
FARGO          CLOUDY    41  40  96 CALM      29.68R
WAHPETON ARPT    N/A     43  37  81 N3        29.69R
$$

 ***** WEATHER ACROSS CENTRAL AND WESTERN NORTH DAKOTA  *****

CITY           SKY/WX    TMP DP  RH WIND       PRES   REMARKS
BISMARCK       FAIR      42  37  82 NE8       29.65S
MINOT          FAIR      41  35  79 CALM      29.65R
JAMESTOWN      CLOUDY    40  35  83 W3        29.66R
MINOT AFB      FAIR      35  33  90 VRB5      29.64R
GARRISON         N/A     38  35  89 NW7       29.67R
WILLISTON      LGT RAIN  40  32  73 W12       29.68R
DICKINSON      RAIN      45  37  73 W30G41    29.69R
HETTINGER      MOCLDY    49  35  58 MISG      29.71R
$$

 *****  OTHER AIRPORT OBSERVATIONS IN OUR AREA  *****

CITY           SKY/WX    TMP DP  RH WIND       PRES   REMARKS
WALHALLA       NOT AVBL
GRAFTON AIRPOR FOG       30  30 100 NW3       29.72R VSB 1/4
VALLEY CITY AR CLOUDY    39  39 100 NW7       29.70R
CANDO          NOT AVBL
CAVALIER APRT  FOG       32  32 100 NW5       29.71R VSB 1/4
GWINNER        FAIR      46  41  81 NW7       29.68R
SHEYENNE NWR     N/A     45  38  76 CALM      29.95S
ROLLA          FAIR      32  32 100 CALM      29.67R FOG
 ***** THE ABOVE OBSERVATIONS ARE NON NWS ARE NOT QUALITY
       CONTROLLED AND MAY MIS-REPORT RAIN FOR SNOW...
$$

  *****  WEATHER ACROSS NORTHERN MINNESOTA  *****

CITY           SKY/WX    TMP DP  RH WIND       PRES   REMARKS
FLAG ISLAND    MOCLDY    34  30  86 N3        29.68S
WARROAD        FAIR      32  28  86 CALM      29.69R
ROSEAU         FAIR      34  28  80 CALM      29.69R
HALLOCK        FAIR      32  30  93 W3        29.69R FOG
THF RVR FALLS  FAIR      37  35  92 CALM      29.69R
BAUDETTE       FAIR      35  32  88 N3        29.65S
WASKISH        FAIR      36  34  93 CALM      29.66R
CROOKSTON      FAIR      34  34 100 N3        29.70R FOG
GREENBUSH NDAW   N/A     30  30 100 E2          N/A
$$
  *****  WEATHER ACROSS CENTRAL AND WEST MINNESOTA  *****

CITY           SKY/WX    TMP DP  RH WIND       PRES   REMARKS
FOSSTON        FAIR      36  34  93 SW3       29.68R
BEMIDJI        FAIR      41  35  79 W6        29.65S
PARK RAPIDS    CLOUDY    40  33  76 SW3       29.65S
ELBOW LAKE     MOCLDY    43  41  93 S3        29.68F
WADENA         FAIR      41  37  87 S5        29.67S
DETROIT LAKES  FAIR      41  36  81 CALM      29.68S
MOORHEAD       FAIR      43  39  87 SW6       29.70R
FERGUS FALLS   MOCLDY    45  41  87 CALM      29.71S
MORRIS MN      FAIR      48  45  87 S3        29.68S
STAPLES        FAIR      41  36  81 SW3       29.68S
$$
  *****  WEATHER ELSEWHERE ACROSS MINNESOTA  *****

CITY           SKY/WX    TMP DP  RH WIND       PRES   REMARKS
DULUTH         FAIR      42  35  76 SE5       29.67F
INTRNTL FALLS  FAIR      35  32  88 CALM      29.66S
ELY            FAIR      43  32  65 SW5       29.67S
CLOQUET        FAIR      43  36  75 CALM      29.68F
WHEATON        FAIR      46  43  87 CALM      29.71R
BRAINERD       FAIR      41  36  82 CALM      29.67S
HIBBING        FAIR      36  33  89 CALM      29.67R
ALEXANDRIA     MOCLDY    46  41  82 SW5       29.68F
SAINT CLOUD    FAIR      47  43  86 W3        29.69S
MINNEAPOLIS    MOCLDY    58  45  62 S8        29.71R
$$

  *****  WEATHER ACROSS SOUTH DAKOTA  *****

CITY           SKY/WX    TMP DP  RH WIND       PRES   REMARKS
SIOUX FALLS    FAIR      50  39  66 CALM      29.70S
BROOKINGS      FAIR      56  39  53 S5        29.69
WATERTOWN      FAIR      49  40  71 CALM      29.67F
HURON          FAIR      57  36  45 SE8       29.65S
SISSETON         N/A     47  41  80 W3        29.67S
ABERDEEN       FAIR      48  40  73 E3        29.66R
MITCHELL       FAIR      59  37  44 S5        29.67F
PIERRE         FAIR      57  36  45 SE9       29.60F
MOBRIDGE       FAIR      53  37  54 E9        29.59S
RAPID CITY     FAIR      57  31  37 NW17      29.68R
$$

  *****  SOME WEATHER IN NEARBY STATES *****

CITY           SKY/WX    TMP DP  RH WIND       PRES   REMARKS
GLASGOW MT     CLOUDY    38  35  89 VRB7      29.66S
GREAT FALLS MT LGT RAIN  36  35  96 N6        29.65R VSB 1/4
CHEYENNE WY    FAIR      53  18  25 W10       29.95F
SCOTTSBLUFF NE FAIR      64  20  18 W20G29    29.83S
OMAHA NE       FAIR      62  38  40 S14       29.81S
DES MOINES IA  FAIR      57  33  40 S8        29.83F
DAVENPORT IA   FAIR      53  43  68 CALM      29.88F
CHICAGO IL     MOCLDY    58  50  75 SW3       29.90R
EAU CLAIRE WI  FAIR      52  38  58 S9        29.75R
LA CROSSE WI   FAIR      55  38  52 S14       29.78F
$$

  *****  SOME NATIONAL WEATHER *****

CITY           SKY/WX    TMP DP  RH WIND       PRES   REMARKS
LA GUARDIA NY  CLOUDY    44  33  65 S10       30.20F
RALEIGH NC     MOCLDY    51  35  54 NE3       30.14F
ATLANTA GA     RAIN      61  60  97 CALM      29.98F FOG
NEW ORLEANS LA MOCLDY    63  59  87 NW5       29.85R
OKLAHOMA CITY  FAIR      58  35  42 W3        29.95R
ALBUQUERQUE NM FAIR      65  24  21 N7        30.19F
SALT LAKE CITY LGT RAIN  45  39  79 NW24G30   30.01R
LOS ANGELES CA CLOUDY    60  57  89 W13       30.23F
BOISE ID       CLOUDY    48  29  47 NW14      29.95R
SEATTLE WA     LGT RAIN  45  40  82 NW5       30.02R
$$

*** WEATHER ACROSS MANITOBA...SASKATCHEWAN AND ONTARIO ***
                ***ONTARIO***

CITY           SKY/WX    TMP DP  RH WIND       PRES   REMARKS
GERALDTON      PTCLDY    30  28  93 SW5       29.67S
THUNDER BAY    PTCLDY    36  32  87 E2        29.70R
SIOUX LOOKOUT  CLOUDY    36  30  80 SW2       29.66S
TORONTO        MOCLDY    39  36  87 CALM      29.94R
BIG TROUT LK   CLOUDY    28  23  80 W15G28    29.52R WCI  17
PICKLE LAKE    FLURRIES  32  28  86 W10       29.61R WCI  24
DRYDEN         CLOUDY    34  32  93 NW3       29.67R
KENORA         NOT AVBL
$$
                *** MANITOBA***

CITY           SKY/WX    TMP DP  RH WIND       PRES   REMARKS
BRANDON        CLOUDY    34  32  93 N8        29.70R
DAUPHIN        CLOUDY    34  30  86 N6        29.71R
ISLAND LAKE    NOT AVBL
PILOT MOUND      N/A     32  30  93 E5          N/A
THE PAS        CLOUDY    32  21  64 NW9       29.67R WCI  24
THOMPSON       LGT SNOW  14  10  85 N6        29.61R WCI   5
WINNIPEG       CLOUDY    32  32 100 CALM      29.71R
LYNN LAKE      LGT SNOW  12   9  85 N8        29.63R WCI   1
GILLAM         FLURRIES  10   5  79 W15       29.54R WCI  -6
$$
                ***SASKATCHEWAN***

CITY           SKY/WX    TMP DP  RH WIND       PRES   REMARKS
ESTEVAN        FOG       32  32 100 N7        29.69R VSB 1/4
KINDERSLEY     PTCLDY    30  25  80 E7        29.74R WCI  23
LLOYDMINSTER   MOCLDY    30  28  93 SW8       29.71S WCI  23
PRINCE ALBERT  MOCLDY    32  25  74 W5        29.73R
REGINA         CLOUDY    34  27  75 N9        29.73R
YORKTON        CLOUDY    34  27  75 NW8       29.71R
N. BATTLEFORD  CLOUDY    34  27  75 S3        29.76R
LA RONGE       CLOUDY    25  18  74 NW17G24   29.71R WCI  11
SASKATOON      CLOUDY    32  25  74 NW5       29.78R
SWIFT CURRENT  CLOUDY    30  28  93 NE7       29.71S WCI  23
$$
NOTE: THESE ARE AUTOMATED STATIONS WITH LIMITED QUALITY CONTROL
      "FAIR" INDICATES FEW OR NO CLOUDS BELOW 12,000 FEET WITH NO
      SIGNIFICANT WEATHER AND/OR OBSTRUCTIONS TO VISIBILITY.
      SKY/WX - SKY CONDITION AND SIGNIFICANT WEATHER.
      TMP - AIR TEMPERATURE.    DP   - DEWPOINT TEMPERATURE.
      RH  - RELATIVE HUMIDITY.  PRES - PRESSURE.
      HX  - HEAT INDEX.         WCI  - WIND CHILL INDEX.
$




USA.gov is the U.S. government's official web portal to all federal, state and local government web resources and services.